EW9936 Weather Reports


Display with metric or nautical units.
time (UTC)temp
F
wind
direction
speed
MPH
gust
MPH
rain 1hr
in
rain 24hr
in
rain mn
in
humidity
%
barometer
mb
20211208031713 29 283 0.0 0.0 0.00 0.00 0.00 90 986.5
20211208030147 29 283 0.0 0.0 0.00 0.00 0.00 90 986.2
20211208024658 29 283 0.0 0.0 0.00 0.00 0.00 90 986.3
20211208023051 29 283 0.0 0.0 0.00 0.00 0.00 90 986.5
20211208021612 29 283 0.0 0.0 0.00 0.00 0.00 90 986.9
20211208020158 29 283 0.0 0.0 0.00 0.00 0.00 88 986.7
20211208014628 29 283 0.0 0.0 0.00 0.00 0.00 87 986.7
20211208013048 30 283 0.0 0.0 0.00 0.00 0.00 87 986.8
20211208011643 30 283 0.0 0.0 0.00 0.00 0.00 86 987.0
20211208010058 30 283 0.0 0.0 0.00 0.00 0.00 85 987.0
20211208004608 30 283 0.0 0.0 0.00 0.00 0.00 84 987.0
20211208003052 30 283 0.0 0.0 0.00 0.00 0.00 83 987.1
20211208001549 31 283 0.0 0.0 0.00 0.00 0.00 84 987.1
20211208000103 31 283 0.0 0.0 0.00 0.00 0.00 82 986.9
20211207234629 31 283 0.0 0.0 0.00 0.00 0.00 81 986.9
20211207233130 31 283 0.0 0.0 0.00 0.00 0.00 79 987.0
20211207231605 31 283 0.0 0.0 0.00 0.00 0.00 78 986.8
20211207230158 31 283 0.0 0.0 0.00 0.00 0.00 77 986.7
20211207224546 32 283 0.0 0.0 0.00 0.00 0.00 76 986.7
20211207223129 32 283 0.0 0.0 0.00 0.00 0.00 74 986.7
20211207221622 32 283 0.0 0.0 0.00 0.00 0.00 72 986.4
20211207220050 33 283 0.0 0.0 0.00 0.00 0.00 71 986.4
20211207214550 33 283 0.0 0.0 0.00 0.00 0.00 71 986.4
20211207213057 33 283 0.0 0.0 0.00 0.00 0.00 69 986.4
20211207211613 34 283 2.0 0.0 0.00 0.00 0.00 69 986.8
20211207210053 35 291 2.0 0.0 0.00 0.00 0.00 67 986.7
20211207204546 35 281 4.0 0.0 0.00 0.00 0.00 67 986.8
20211207203047 35 323 3.0 0.0 0.00 0.00 0.00 68 986.4
20211207201550 35 308 3.0 0.0 0.00 0.00 0.00 68 986.2
20211207200104 35 279 4.0 0.0 0.00 0.00 0.00 67 986.6
20211207194610 35 342 3.0 0.0 0.00 0.00 0.00 67 986.4
20211207193129 35 307 3.0 0.0 0.00 0.00 0.00 67 986.3
20211207191703 35 303 4.0 0.0 0.00 0.00 0.00 68 986.3
20211207190056 35 293 4.0 0.0 0.00 0.00 0.00 68 986.2
20211207184546 35 299 5.0 0.0 0.00 0.00 0.00 68 986.4
20211207183051 36 34 4.0 0.0 0.00 0.00 0.00 67 986.3
20211207181608 35 263 4.0 0.0 0.00 0.00 0.00 68 986.6
20211207180058 35 292 4.0 0.0 0.00 0.00 0.00 67 986.8
20211207174625 35 280 5.0 0.0 0.00 0.00 0.00 67 986.9
20211207173130 36 273 4.0 0.0 0.00 0.00 0.00 67 987.0
20211207171548 35 272 4.0 0.0 0.00 0.00 0.00 68 986.9
20211207170046 35 273 4.0 0.0 0.00 0.00 0.00 70 986.8
20211207164527 35 286 4.0 0.0 0.00 0.00 0.00 67 986.9
20211207163038 35 300 5.0 0.0 0.00 0.00 0.00 68 987.0
20211207161553 35 250 5.0 0.0 0.00 0.00 0.00 70 987.4
20211207160036 35 292 5.0 0.0 0.00 0.00 0.00 69 987.0
20211207155114 35 268 5.0 0.0 0.00 0.00 0.00 69 987.3
20211207153058 34 301 4.0 0.0 0.00 0.00 0.00 70 987.3
20211207151521 34 295 5.0 0.0 0.00 0.00 0.00 70 987.5
20211207150019 34 272 4.0 0.0 0.00 0.00 0.00 70 987.3
20211207144520 34 303 7.0 0.0 0.00 0.00 0.00 70 987.0
20211207143025 33 298 6.0 0.0 0.00 0.00 0.00 69 986.8
20211207141520 33 277 3.0 0.0 0.00 0.00 0.00 72 986.8
20211207140058 32 287 4.0 0.0 0.00 0.00 0.00 72 986.6
20211207134514 31 283 3.0 0.0 0.00 0.00 0.00 73 986.5
20211207133017 31 269 4.0 0.0 0.00 0.00 0.00 73 986.7
20211207131520 30 289 4.0 0.0 0.00 0.00 0.00 75 986.3
20211207130023 30 300 2.0 0.0 0.00 0.00 0.00 76 986.3
20211207124509 29 263 2.0 0.0 0.00 0.00 0.00 78 986.2
20211207123008 29 268 3.0 0.0 0.00 0.00 0.00 78 986.5
20211207121510 29 246 2.0 0.0 0.00 0.00 0.00 78 986.2
20211207120007 29 252 2.0 0.0 0.00 0.00 0.00 78 985.7
20211207114638 29 240 1.0 0.0 0.00 0.00 0.00 78 985.7
20211207113145 30 240 2.0 0.0 0.00 0.00 0.00 76 985.2
20211207111718 30 240 2.0 0.0 0.00 0.00 0.00 75 985.2
20211207110108 29 254 2.0 0.0 0.00 0.00 0.00 76 984.7
20211207104559 29 263 1.0 0.0 0.00 0.00 0.00 77 984.3
20211207103053 29 276 0.0 0.0 0.00 0.00 0.00 78 984.0
20211207101551 30 276 1.0 0.0 0.00 0.00 0.00 76 983.9
20211207100051 30 276 1.0 0.0 0.00 0.00 0.00 75 983.5
20211207094552 30 280 1.0 0.0 0.00 0.00 0.00 74 983.2
20211207093104 31 278 1.0 0.0 0.00 0.00 0.00 74 983.0
20211207091610 31 278 0.0 0.0 0.00 0.00 0.00 72 983.0
20211207090045 31 279 1.0 0.0 0.00 0.00 0.00 71 982.7
20211207084534 32 279 1.0 0.0 0.00 0.00 0.00 70 982.6
20211207083114 32 281 2.0 0.0 0.00 0.00 0.00 70 982.4
20211207081547 32 282 3.0 0.0 0.00 0.00 0.00 70 982.5
20211207080106 32 237 1.0 0.0 0.00 0.00 0.00 70 982.2
20211207074551 33 288 1.0 0.0 0.00 0.00 0.00 70 981.9
20211207073108 33 329 2.0 0.0 0.00 0.00 0.00 69 981.8
20211207071529 33 294 3.0 0.0 0.00 0.00 0.00 68 981.8
20211207070023 33 276 4.0 0.0 0.00 0.00 0.00 68 981.8
20211207064547 33 312 4.0 0.0 0.00 0.00 0.00 68 981.3
20211207063021 33 271 3.0 0.0 0.00 0.00 0.00 69 980.9
20211207061513 33 296 3.0 0.0 0.00 0.00 0.00 68 981.1
20211207060011 34 275 3.0 0.0 0.00 0.00 0.00 68 980.6
20211207054511 34 303 4.0 0.0 0.00 0.00 0.00 68 980.3
20211207053003 34 273 4.0 0.0 0.00 0.00 0.00 69 980.1
20211207051820 34 310 2.0 0.0 0.00 0.00 0.00 71 979.7
20211207050118 35 307 1.0 0.0 0.00 0.00 0.00 70 979.9
20211207044641 35 313 4.0 0.0 0.00 0.00 0.20 69 979.3
20211207043217 36 350 7.0 0.0 0.00 0.00 0.20 69 978.7
20211207041642 36 303 7.0 0.0 0.00 0.00 0.20 67 978.2
20211207040054 36 281 7.0 0.0 0.00 0.00 0.20 66 977.9
20211207034638 37 339 9.0 0.0 0.00 0.00 0.20 65 977.5
20211207033146 38 315 9.0 0.0 0.00 0.00 0.20 65 977.1